sat.trackr.live / text

‹ back to catalog

STARLINK-5606

NORAD 55767 · 2023-028AC

PAYLOAD ACTIVE UNKNOWN

§ Identity

Operator
Country
US
Launch date
2023-03-03
Launch site
AFWTR
Launch vehicle
Mass (kg)
RCS (m²)

Purposes: comms

External: N2YO · Heavens-Above · Gunter

§ Orbital elements

Epoch: 2026-09-20T22:18:50.027616Z

Period
96.11 min
Inclination
69.9986°
Eccentricity
0.0002629
Mean motion
14.98334142 rev/d
Perigee alt
570.2 km
Apogee alt
573.9 km
Semi-major
6,950.2 km
B*
1.7178e-4
RAAN
92.3714°
Arg perigee
268.2833°
Mean anomaly
91.8024°
Rev number
19,575

§ Raw data

STARLINK-56061 55767U 23028AC  26263.92974569  .00001957  00000+0  17178-3 0  99932 55767  69.9986  92.3714 0002629 268.2833  91.8024 14.98334142195756

JSON: /api/v1/satellites/55767 · /tle

For live sub-satellite position, see the globe view (requires WebGL).

§ Visibility from observer

Set your observer location to see the next 7 days of passes ≥ 10°. The values pass through the URL so the page stays shareable.

No JS? Fill the form by hand. The geolocation button needs JavaScript.